iso_date,epoch_date,Year,Hour,Min,DOY,POS_DOY,Lat,Lon,BP,Ts,Ta,has_bp,has_ts,has_ta,BuoyID,Buoy_Type,Buoy_Owner,Logistics,Hemisphere
2019-02-21T00:00:00Z,1550707200,2019,0,0,52.0,52.0,50.002,-153.718,1026.2,5.68,-999.0,yes,yes,no,300234063893650,BD2GI,AOML,WWD_COLUMBIA,North
2019-02-21T01:00:28Z,1550710829,2019,1,0,52.042,52.042,50.01,-153.717,1025.8,5.68,-999.0,yes,yes,no,300234063893650,BD2GI,AOML,WWD_COLUMBIA,North
2019-02-21T01:59:31Z,1550714371,2019,2,0,52.083,52.083,50.018,-153.714,1025.6,5.65,-999.0,yes,yes,no,300234063893650,BD2GI,AOML,WWD_COLUMBIA,North
2019-02-21T03:00:00Z,1550718000,2019,3,0,52.125,52.125,50.027,-153.709,1025.1,5.65,-999.0,yes,yes,no,300234063893650,BD2GI,AOML,WWD_COLUMBIA,North
2019-02-21T04:00:28Z,1550721629,2019,4,0,52.167,52.167,50.035,-153.7,1024.9,5.61,-999.0,yes,yes,no,300234063893650,BD2GI,AOML,WWD_COLUMBIA,North
2019-02-21T04:59:31Z,1550725171,2019,5,0,52.208,52.208,50.043,-153.688,1024.9,5.61,-999.0,yes,yes,no,300234063893650,BD2GI,AOML,WWD_COLUMBIA,North
2019-02-21T06:00:00Z,1550728800,2019,6,0,52.25,52.25,50.052,-153.674,1024.8,5.58,-999.0,yes,yes,no,300234063893650,BD2GI,AOML,WWD_COLUMBIA,North
2019-02-21T07:00:28Z,1550732429,2019,7,0,52.292,52.292,50.057,-153.656,1025.0,5.58,-999.0,yes,yes,no,300234063893650,BD2GI,AOML,WWD_COLUMBIA,North
2019-02-21T07:59:31Z,1550735971,2019,8,0,52.333,52.333,50.059,-153.636,1025.5,5.58,-999.0,yes,yes,no,300234063893650,BD2GI,AOML,WWD_COLUMBIA,North
2019-02-21T09:00:00Z,1550739600,2019,9,0,52.375,52.375,50.057,-153.619,1025.8,5.54,-999.0,yes,yes,no,300234063893650,BD2GI,AOML,WWD_COLUMBIA,North
2019-02-21T10:00:28Z,1550743229,2019,10,0,52.417,52.417,50.05,-153.604,1025.9,5.54,-999.0,yes,yes,no,300234063893650,BD2GI,AOML,WWD_COLUMBIA,North
2019-02-21T10:59:31Z,1550746771,2019,11,0,52.458,52.458,50.043,-153.594,1026.2,5.54,-999.0,yes,yes,no,300234063893650,BD2GI,AOML,WWD_COLUMBIA,North
2019-02-21T12:00:00Z,1550750400,2019,12,0,52.5,52.5,50.036,-153.59,1026.3,5.54,-999.0,yes,yes,no,300234063893650,BD2GI,AOML,WWD_COLUMBIA,North
2019-02-21T13:00:28Z,1550754029,2019,13,0,52.542,52.542,50.027,-153.589,1026.8,5.54,-999.0,yes,yes,no,300234063893650,BD2GI,AOML,WWD_COLUMBIA,North
2019-02-21T13:59:31Z,1550757571,2019,14,0,52.583,52.583,50.023,-153.592,1027.1,5.54,-999.0,yes,yes,no,300234063893650,BD2GI,AOML,WWD_COLUMBIA,North
2019-02-21T15:00:00Z,1550761200,2019,15,0,52.625,52.625,50.013,-153.597,1027.3,5.54,-999.0,yes,yes,no,300234063893650,BD2GI,AOML,WWD_COLUMBIA,North
2019-02-21T16:00:28Z,1550764829,2019,16,0,52.667,52.667,50.009,-153.602,1027.8,5.54,-999.0,yes,yes,no,300234063893650,BD2GI,AOML,WWD_COLUMBIA,North
2019-02-21T16:59:31Z,1550768371,2019,17,0,52.708,52.708,50.008,-153.604,1027.7,5.58,-999.0,yes,yes,no,300234063893650,BD2GI,AOML,WWD_COLUMBIA,North
2019-02-21T18:00:00Z,1550772000,2019,18,0,52.75,52.75,50.008,-153.604,1028.1,5.58,-999.0,yes,yes,no,300234063893650,BD2GI,AOML,WWD_COLUMBIA,North
2019-02-21T19:00:28Z,1550775629,2019,19,0,52.792,52.792,50.01,-153.601,1028.3,5.58,-999.0,yes,yes,no,300234063893650,BD2GI,AOML,WWD_COLUMBIA,North
2019-02-21T19:59:31Z,1550779171,2019,20,0,52.833,52.833,50.01,-153.597,1028.5,5.58,-999.0,yes,yes,no,300234063893650,BD2GI,AOML,WWD_COLUMBIA,North
2019-02-21T21:00:00Z,1550782800,2019,21,0,52.875,52.875,50.011,-153.59,1028.6,5.61,-999.0,yes,yes,no,300234063893650,BD2GI,AOML,WWD_COLUMBIA,North
2019-02-21T22:00:28Z,1550786429,2019,22,0,52.917,52.917,50.008,-153.58,1028.8,5.61,-999.0,yes,yes,no,300234063893650,BD2GI,AOML,WWD_COLUMBIA,North
2019-02-21T22:59:31Z,1550789971,2019,23,0,52.958,52.958,50.006,-153.575,1028.2,5.68,-999.0,yes,yes,no,300234063893650,BD2GI,AOML,WWD_COLUMBIA,North
2019-02-22T00:00:00Z,1550793600,2019,0,0,53.0,53.0,50.0,-153.572,1027.7,5.72,-999.0,yes,yes,no,300234063893650,BD2GI,AOML,WWD_COLUMBIA,North
2019-02-22T10:00:28Z,1550829629,2019,10,0,53.417,53.417,50.001,-153.605,1027.0,5.75,-999.0,yes,yes,no,300234063893650,BD2GI,AOML,WWD_COLUMBIA,North
2019-02-22T10:59:31Z,1550833171,2019,11,0,53.458,53.458,50.003,-153.606,1026.4,5.78,-999.0,yes,yes,no,300234063893650,BD2GI,AOML,WWD_COLUMBIA,North
2019-02-22T12:00:00Z,1550836800,2019,12,0,53.5,53.5,50.007,-153.609,1026.2,5.78,-999.0,yes,yes,no,300234063893650,BD2GI,AOML,WWD_COLUMBIA,North
2019-02-22T13:00:28Z,1550840429,2019,13,0,53.542,53.542,50.012,-153.612,1026.1,5.78,-999.0,yes,yes,no,300234063893650,BD2GI,AOML,WWD_COLUMBIA,North
2019-02-22T13:59:31Z,1550843971,2019,14,0,53.583,53.583,50.017,-153.614,1025.7,5.75,-999.0,yes,yes,no,300234063893650,BD2GI,AOML,WWD_COLUMBIA,North
2019-02-22T15:00:00Z,1550847600,2019,15,0,53.625,53.625,50.021,-153.616,1025.4,5.75,-999.0,yes,yes,no,300234063893650,BD2GI,AOML,WWD_COLUMBIA,North
2019-02-22T16:00:28Z,1550851229,2019,16,0,53.667,53.667,50.024,-153.62,1025.1,5.72,-999.0,yes,yes,no,300234063893650,BD2GI,AOML,WWD_COLUMBIA,North
2019-02-22T16:59:31Z,1550854771,2019,17,0,53.708,53.708,50.027,-153.621,1024.8,5.68,-999.0,yes,yes,no,300234063893650,BD2GI,AOML,WWD_COLUMBIA,North
2019-02-22T18:00:00Z,1550858400,2019,18,0,53.75,53.75,50.029,-153.624,1024.7,5.65,-999.0,yes,yes,no,300234063893650,BD2GI,AOML,WWD_COLUMBIA,North
2019-02-22T19:00:28Z,1550862029,2019,19,0,53.792,53.792,50.03,-153.628,1024.9,5.61,-999.0,yes,yes,no,300234063893650,BD2GI,AOML,WWD_COLUMBIA,North
2019-02-22T19:59:31Z,1550865571,2019,20,0,53.833,53.833,50.031,-153.631,1024.9,5.61,-999.0,yes,yes,no,300234063893650,BD2GI,AOML,WWD_COLUMBIA,North
2019-02-22T21:00:00Z,1550869200,2019,21,0,53.875,53.875,50.031,-153.636,1024.3,5.61,-999.0,yes,yes,no,300234063893650,BD2GI,AOML,WWD_COLUMBIA,North
2019-02-22T22:00:28Z,1550872829,2019,22,0,53.917,53.917,50.033,-153.647,1023.7,5.61,-999.0,yes,yes,no,300234063893650,BD2GI,AOML,WWD_COLUMBIA,North
2019-02-22T22:59:31Z,1550876371,2019,23,0,53.958,53.958,50.036,-153.659,1022.8,5.61,-999.0,yes,yes,no,300234063893650,BD2GI,AOML,WWD_COLUMBIA,North
2019-02-23T00:00:00Z,1550880000,2019,0,0,54.0,54.0,50.039,-153.671,1022.1,5.61,-999.0,yes,yes,no,300234063893650,BD2GI,AOML,WWD_COLUMBIA,North
2019-02-23T01:00:28Z,1550883629,2019,1,0,54.042,54.042,50.042,-153.682,1021.5,5.58,-999.0,yes,yes,no,300234063893650,BD2GI,AOML,WWD_COLUMBIA,North
2019-02-23T01:59:31Z,1550887171,2019,2,0,54.083,54.083,50.047,-153.695,1021.1,5.58,-999.0,yes,yes,no,300234063893650,BD2GI,AOML,WWD_COLUMBIA,North
2019-02-23T03:00:00Z,1550890800,2019,3,0,54.125,54.125,50.051,-153.706,1020.9,5.54,-999.0,yes,yes,no,300234063893650,BD2GI,AOML,WWD_COLUMBIA,North
2019-02-23T04:00:28Z,1550894429,2019,4,0,54.167,54.167,50.056,-153.716,1020.5,5.54,-999.0,yes,yes,no,300234063893650,BD2GI,AOML,WWD_COLUMBIA,North
2019-02-23T04:59:31Z,1550897971,2019,5,0,54.208,54.208,50.06,-153.726,1020.5,5.51,-999.0,yes,yes,no,300234063893650,BD2GI,AOML,WWD_COLUMBIA,North
2019-02-23T06:00:00Z,1550901600,2019,6,0,54.25,54.25,50.066,-153.735,1020.4,5.51,-999.0,yes,yes,no,300234063893650,BD2GI,AOML,WWD_COLUMBIA,North
2019-02-23T07:00:28Z,1550905229,2019,7,0,54.292,54.292,50.071,-153.74,1020.1,5.51,-999.0,yes,yes,no,300234063893650,BD2GI,AOML,WWD_COLUMBIA,North
2019-02-23T07:59:31Z,1550908771,2019,8,0,54.333,54.333,50.076,-153.742,1020.2,5.48,-999.0,yes,yes,no,300234063893650,BD2GI,AOML,WWD_COLUMBIA,North
2019-02-23T09:00:00Z,1550912400,2019,9,0,54.375,54.375,50.079,-153.747,1019.2,5.51,-999.0,yes,yes,no,300234063893650,BD2GI,AOML,WWD_COLUMBIA,North
2019-02-23T10:00:28Z,1550916029,2019,10,0,54.417,54.417,50.081,-153.754,1018.6,5.48,-999.0,yes,yes,no,300234063893650,BD2GI,AOML,WWD_COLUMBIA,North
2019-02-23T10:59:31Z,1550919571,2019,11,0,54.458,54.458,50.084,-153.763,1018.0,5.48,-999.0,yes,yes,no,300234063893650,BD2GI,AOML,WWD_COLUMBIA,North
2019-02-23T12:00:00Z,1550923200,2019,12,0,54.5,54.5,50.088,-153.775,1017.5,5.48,-999.0,yes,yes,no,300234063893650,BD2GI,AOML,WWD_COLUMBIA,North
2019-02-23T13:00:28Z,1550926829,2019,13,0,54.542,54.542,50.092,-153.789,1016.6,5.48,-999.0,yes,yes,no,300234063893650,BD2GI,AOML,WWD_COLUMBIA,North
2019-02-23T13:59:31Z,1550930371,2019,14,0,54.583,54.583,50.097,-153.804,1016.0,5.48,-999.0,yes,yes,no,300234063893650,BD2GI,AOML,WWD_COLUMBIA,North
2019-02-23T15:00:00Z,1550934000,2019,15,0,54.625,54.625,50.102,-153.824,1015.6,5.48,-999.0,yes,yes,no,300234063893650,BD2GI,AOML,WWD_COLUMBIA,North
2019-02-23T16:00:28Z,1550937629,2019,16,0,54.667,54.667,50.11,-153.842,1015.5,5.48,-999.0,yes,yes,no,300234063893650,BD2GI,AOML,WWD_COLUMBIA,North
2019-02-23T16:59:31Z,1550941171,2019,17,0,54.708,54.708,50.12,-153.859,1015.1,5.48,-999.0,yes,yes,no,300234063893650,BD2GI,AOML,WWD_COLUMBIA,North
2019-02-23T18:00:00Z,1550944800,2019,18,0,54.75,54.75,50.131,-153.872,1015.2,5.48,-999.0,yes,yes,no,300234063893650,BD2GI,AOML,WWD_COLUMBIA,North
2019-02-23T19:00:28Z,1550948429,2019,19,0,54.792,54.792,50.144,-153.884,1015.2,5.48,-999.0,yes,yes,no,300234063893650,BD2GI,AOML,WWD_COLUMBIA,North
2019-02-23T19:59:31Z,1550951971,2019,20,0,54.833,54.833,50.154,-153.891,1015.3,5.48,-999.0,yes,yes,no,300234063893650,BD2GI,AOML,WWD_COLUMBIA,North
2019-02-23T21:00:00Z,1550955600,2019,21,0,54.875,54.875,50.166,-153.896,1015.5,5.51,-999.0,yes,yes,no,300234063893650,BD2GI,AOML,WWD_COLUMBIA,North
2019-02-23T22:00:28Z,1550959229,2019,22,0,54.917,54.917,50.176,-153.9,1015.5,5.54,-999.0,yes,yes,no,300234063893650,BD2GI,AOML,WWD_COLUMBIA,North
2019-02-23T22:59:31Z,1550962771,2019,23,0,54.958,54.958,50.186,-153.904,1015.2,5.54,-999.0,yes,yes,no,300234063893650,BD2GI,AOML,WWD_COLUMBIA,North
2019-02-24T00:00:00Z,1550966400,2019,0,0,55.0,55.0,50.194,-153.909,1014.9,5.58,-999.0,yes,yes,no,300234063893650,BD2GI,AOML,WWD_COLUMBIA,North
2019-02-24T01:00:28Z,1550970029,2019,1,0,55.042,55.042,50.199,-153.915,1014.8,5.61,-999.0,yes,yes,no,300234063893650,BD2GI,AOML,WWD_COLUMBIA,North
2019-02-24T01:59:31Z,1550973571,2019,2,0,55.083,55.083,50.202,-153.923,1014.7,5.65,-999.0,yes,yes,no,300234063893650,BD2GI,AOML,WWD_COLUMBIA,North
2019-02-24T03:00:00Z,1550977200,2019,3,0,55.125,55.125,50.205,-153.934,1014.6,5.68,-999.0,yes,yes,no,300234063893650,BD2GI,AOML,WWD_COLUMBIA,North
2019-02-24T04:00:28Z,1550980829,2019,4,0,55.167,55.167,50.209,-153.946,1014.9,5.65,-999.0,yes,yes,no,300234063893650,BD2GI,AOML,WWD_COLUMBIA,North
2019-02-24T04:59:31Z,1550984371,2019,5,0,55.208,55.208,50.211,-153.96,1015.4,5.68,-999.0,yes,yes,no,300234063893650,BD2GI,AOML,WWD_COLUMBIA,North
2019-02-24T06:00:00Z,1550988000,2019,6,0,55.25,55.25,50.217,-153.975,1015.7,5.65,-999.0,yes,yes,no,300234063893650,BD2GI,AOML,WWD_COLUMBIA,North
2019-02-24T07:00:28Z,1550991629,2019,7,0,55.292,55.292,50.222,-153.99,1015.9,5.65,-999.0,yes,yes,no,300234063893650,BD2GI,AOML,WWD_COLUMBIA,North
2019-02-24T07:59:31Z,1550995171,2019,8,0,55.333,55.333,50.228,-154.002,1016.3,5.65,-999.0,yes,yes,no,300234063893650,BD2GI,AOML,WWD_COLUMBIA,North
2019-02-24T09:00:00Z,1550998800,2019,9,0,55.375,55.375,50.236,-154.016,1016.8,5.65,-999.0,yes,yes,no,300234063893650,BD2GI,AOML,WWD_COLUMBIA,North
2019-02-24T10:00:28Z,1551002429,2019,10,0,55.417,55.417,50.247,-154.026,1017.2,5.65,-999.0,yes,yes,no,300234063893650,BD2GI,AOML,WWD_COLUMBIA,North
2019-02-24T10:59:31Z,1551005971,2019,11,0,55.458,55.458,50.256,-154.03,1017.4,5.65,-999.0,yes,yes,no,300234063893650,BD2GI,AOML,WWD_COLUMBIA,North
2019-02-24T12:00:00Z,1551009600,2019,12,0,55.5,55.5,50.265,-154.032,1017.8,5.65,-999.0,yes,yes,no,300234063893650,BD2GI,AOML,WWD_COLUMBIA,North
2019-02-24T13:00:28Z,1551013229,2019,13,0,55.542,55.542,50.27,-154.035,1018.1,5.65,-999.0,yes,yes,no,300234063893650,BD2GI,AOML,WWD_COLUMBIA,North
2019-02-24T13:59:31Z,1551016771,2019,14,0,55.583,55.583,50.273,-154.036,1018.3,5.65,-999.0,yes,yes,no,300234063893650,BD2GI,AOML,WWD_COLUMBIA,North
2019-02-24T15:00:00Z,1551020400,2019,15,0,55.625,55.625,50.275,-154.042,1018.7,5.65,-999.0,yes,yes,no,300234063893650,BD2GI,AOML,WWD_COLUMBIA,North
2019-02-24T16:00:28Z,1551024029,2019,16,0,55.667,55.667,50.275,-154.048,1019.3,5.68,-999.0,yes,yes,no,300234063893650,BD2GI,AOML,WWD_COLUMBIA,North
2019-02-24T16:59:31Z,1551027571,2019,17,0,55.708,55.708,50.274,-154.056,1019.8,5.68,-999.0,yes,yes,no,300234063893650,BD2GI,AOML,WWD_COLUMBIA,North
2019-02-24T18:00:00Z,1551031200,2019,18,0,55.75,55.75,50.275,-154.067,1020.3,5.68,-999.0,yes,yes,no,300234063893650,BD2GI,AOML,WWD_COLUMBIA,North
2019-02-24T19:00:28Z,1551034829,2019,19,0,55.792,55.792,50.275,-154.081,1021.1,5.68,-999.0,yes,yes,no,300234063893650,BD2GI,AOML,WWD_COLUMBIA,North
2019-02-24T19:59:31Z,1551038371,2019,20,0,55.833,55.833,50.277,-154.096,1021.4,5.68,-999.0,yes,yes,no,300234063893650,BD2GI,AOML,WWD_COLUMBIA,North
2019-02-24T21:00:00Z,1551042000,2019,21,0,55.875,55.875,50.284,-154.114,1021.9,5.68,-999.0,yes,yes,no,300234063893650,BD2GI,AOML,WWD_COLUMBIA,North
2019-02-24T22:00:28Z,1551045629,2019,22,0,55.917,55.917,50.292,-154.13,1022.5,5.72,-999.0,yes,yes,no,300234063893650,BD2GI,AOML,WWD_COLUMBIA,North
2019-02-24T22:59:31Z,1551049171,2019,23,0,55.958,55.958,50.301,-154.143,1022.6,5.72,-999.0,yes,yes,no,300234063893650,BD2GI,AOML,WWD_COLUMBIA,North
2019-02-25T00:00:00Z,1551052800,2019,0,0,56.0,56.0,50.31,-154.152,1022.4,5.75,-999.0,yes,yes,no,300234063893650,BD2GI,AOML,WWD_COLUMBIA,North
2019-02-25T01:00:28Z,1551056429,2019,1,0,56.042,56.042,50.32,-154.156,1022.0,5.75,-999.0,yes,yes,no,300234063893650,BD2GI,AOML,WWD_COLUMBIA,North
2019-02-25T01:59:31Z,1551059971,2019,2,0,56.083,56.083,50.327,-154.158,1021.7,5.75,-999.0,yes,yes,no,300234063893650,BD2GI,AOML,WWD_COLUMBIA,North
2019-02-25T03:00:00Z,1551063600,2019,3,0,56.125,56.125,50.333,-154.158,1022.2,5.68,-999.0,yes,yes,no,300234063893650,BD2GI,AOML,WWD_COLUMBIA,North
2019-02-25T04:00:28Z,1551067229,2019,4,0,56.167,56.167,50.337,-154.157,1022.5,5.65,-999.0,yes,yes,no,300234063893650,BD2GI,AOML,WWD_COLUMBIA,North
2019-02-25T04:59:31Z,1551070771,2019,5,0,56.208,56.208,50.339,-154.156,1022.9,5.65,-999.0,yes,yes,no,300234063893650,BD2GI,AOML,WWD_COLUMBIA,North
2019-02-25T06:00:00Z,1551074400,2019,6,0,56.25,56.25,50.338,-154.154,1023.2,5.65,-999.0,yes,yes,no,300234063893650,BD2GI,AOML,WWD_COLUMBIA,North
2019-02-25T07:00:28Z,1551078029,2019,7,0,56.292,56.292,50.336,-154.156,1023.2,5.61,-999.0,yes,yes,no,300234063893650,BD2GI,AOML,WWD_COLUMBIA,North
2019-02-25T07:59:31Z,1551081571,2019,8,0,56.333,56.333,50.335,-154.16,1023.5,5.61,-999.0,yes,yes,no,300234063893650,BD2GI,AOML,WWD_COLUMBIA,North
2019-02-25T09:00:00Z,1551085200,2019,9,0,56.375,56.375,50.336,-154.168,1023.5,5.61,-999.0,yes,yes,no,300234063893650,BD2GI,AOML,WWD_COLUMBIA,North
2019-02-25T10:00:28Z,1551088829,2019,10,0,56.417,56.417,50.338,-154.176,1023.4,5.61,-999.0,yes,yes,no,300234063893650,BD2GI,AOML,WWD_COLUMBIA,North
2019-02-25T10:59:31Z,1551092371,2019,11,0,56.458,56.458,50.339,-154.185,1023.2,5.61,-999.0,yes,yes,no,300234063893650,BD2GI,AOML,WWD_COLUMBIA,North
2019-02-25T12:00:00Z,1551096000,2019,12,0,56.5,56.5,50.342,-154.196,1023.0,5.61,-999.0,yes,yes,no,300234063893650,BD2GI,AOML,WWD_COLUMBIA,North
2019-02-25T13:00:28Z,1551099629,2019,13,0,56.542,56.542,50.349,-154.209,1022.5,5.61,-999.0,yes,yes,no,300234063893650,BD2GI,AOML,WWD_COLUMBIA,North
2019-02-25T13:59:31Z,1551103171,2019,14,0,56.583,56.583,50.359,-154.222,1022.0,5.61,-999.0,yes,yes,no,300234063893650,BD2GI,AOML,WWD_COLUMBIA,North
2019-02-25T15:00:00Z,1551106800,2019,15,0,56.625,56.625,50.37,-154.228,1021.7,5.61,-999.0,yes,yes,no,300234063893650,BD2GI,AOML,WWD_COLUMBIA,North
2019-02-25T16:00:28Z,1551110429,2019,16,0,56.667,56.667,50.381,-154.232,1021.8,5.61,-999.0,yes,yes,no,300234063893650,BD2GI,AOML,WWD_COLUMBIA,North
2019-02-25T16:59:31Z,1551113971,2019,17,0,56.708,56.708,50.388,-154.235,1022.1,5.61,-999.0,yes,yes,no,300234063893650,BD2GI,AOML,WWD_COLUMBIA,North
2019-02-25T18:00:00Z,1551117600,2019,18,0,56.75,56.75,50.393,-154.235,1022.4,5.61,-999.0,yes,yes,no,300234063893650,BD2GI,AOML,WWD_COLUMBIA,North
2019-02-25T19:00:28Z,1551121229,2019,19,0,56.792,56.792,50.394,-154.237,1022.8,5.61,-999.0,yes,yes,no,300234063893650,BD2GI,AOML,WWD_COLUMBIA,North
2019-02-25T19:59:31Z,1551124771,2019,20,0,56.833,56.833,50.397,-154.241,1023.5,5.65,-999.0,yes,yes,no,300234063893650,BD2GI,AOML,WWD_COLUMBIA,North
2019-02-25T21:00:00Z,1551128400,2019,21,0,56.875,56.875,50.401,-154.248,1022.5,5.72,-999.0,yes,yes,no,300234063893650,BD2GI,AOML,WWD_COLUMBIA,North
2019-02-25T22:00:28Z,1551132029,2019,22,0,56.917,56.917,50.406,-154.253,1022.6,5.75,-999.0,yes,yes,no,300234063893650,BD2GI,AOML,WWD_COLUMBIA,North
2019-02-25T22:59:31Z,1551135571,2019,23,0,56.958,56.958,50.41,-154.258,1022.5,5.75,-999.0,yes,yes,no,300234063893650,BD2GI,AOML,WWD_COLUMBIA,North
2019-02-26T00:00:00Z,1551139200,2019,0,0,57.0,57.0,50.414,-154.266,1021.9,5.75,-999.0,yes,yes,no,300234063893650,BD2GI,AOML,WWD_COLUMBIA,North
2019-02-26T01:00:28Z,1551142829,2019,1,0,57.042,57.042,50.419,-154.275,1021.8,5.75,-999.0,yes,yes,no,300234063893650,BD2GI,AOML,WWD_COLUMBIA,North
2019-02-26T01:59:31Z,1551146371,2019,2,0,57.083,57.083,50.422,-154.284,1021.3,5.72,-999.0,yes,yes,no,300234063893650,BD2GI,AOML,WWD_COLUMBIA,North
2019-02-26T03:00:00Z,1551150000,2019,3,0,57.125,57.125,50.429,-154.295,1021.3,5.72,-999.0,yes,yes,no,300234063893650,BD2GI,AOML,WWD_COLUMBIA,North
2019-02-26T04:00:28Z,1551153629,2019,4,0,57.167,57.167,50.436,-154.303,1021.4,5.68,-999.0,yes,yes,no,300234063893650,BD2GI,AOML,WWD_COLUMBIA,North
2019-02-26T04:59:31Z,1551157171,2019,5,0,57.208,57.208,50.44,-154.312,1021.8,5.61,-999.0,yes,yes,no,300234063893650,BD2GI,AOML,WWD_COLUMBIA,North
2019-02-26T06:00:00Z,1551160800,2019,6,0,57.25,57.25,50.442,-154.322,1021.9,5.61,-999.0,yes,yes,no,300234063893650,BD2GI,AOML,WWD_COLUMBIA,North
2019-02-26T07:00:28Z,1551164429,2019,7,0,57.292,57.292,50.445,-154.332,1021.9,5.61,-999.0,yes,yes,no,300234063893650,BD2GI,AOML,WWD_COLUMBIA,North
2019-02-26T07:59:31Z,1551167971,2019,8,0,57.333,57.333,50.451,-154.342,1022.2,5.58,-999.0,yes,yes,no,300234063893650,BD2GI,AOML,WWD_COLUMBIA,North
2019-02-26T09:00:00Z,1551171600,2019,9,0,57.375,57.375,50.456,-154.351,1022.4,5.58,-999.0,yes,yes,no,300234063893650,BD2GI,AOML,WWD_COLUMBIA,North
2019-02-26T10:00:28Z,1551175229,2019,10,0,57.417,57.417,50.461,-154.359,1022.2,5.58,-999.0,yes,yes,no,300234063893650,BD2GI,AOML,WWD_COLUMBIA,North
2019-02-26T10:59:31Z,1551178771,2019,11,0,57.458,57.458,50.465,-154.368,1022.5,5.58,-999.0,yes,yes,no,300234063893650,BD2GI,AOML,WWD_COLUMBIA,North
2019-02-26T12:00:00Z,1551182400,2019,12,0,57.5,57.5,50.47,-154.374,1022.5,5.58,-999.0,yes,yes,no,300234063893650,BD2GI,AOML,WWD_COLUMBIA,North
2019-02-26T13:00:28Z,1551186029,2019,13,0,57.542,57.542,50.476,-154.382,1022.7,5.58,-999.0,yes,yes,no,300234063893650,BD2GI,AOML,WWD_COLUMBIA,North
2019-02-26T13:59:31Z,1551189571,2019,14,0,57.583,57.583,50.48,-154.389,1022.7,5.58,-999.0,yes,yes,no,300234063893650,BD2GI,AOML,WWD_COLUMBIA,North
2019-02-26T15:00:00Z,1551193200,2019,15,0,57.625,57.625,50.483,-154.397,1022.8,5.58,-999.0,yes,yes,no,300234063893650,BD2GI,AOML,WWD_COLUMBIA,North
2019-02-26T16:00:28Z,1551196829,2019,16,0,57.667,57.667,50.484,-154.404,1023.4,5.58,-999.0,yes,yes,no,300234063893650,BD2GI,AOML,WWD_COLUMBIA,North
2019-02-26T16:59:31Z,1551200371,2019,17,0,57.708,57.708,50.481,-154.416,1023.8,5.58,-999.0,yes,yes,no,300234063893650,BD2GI,AOML,WWD_COLUMBIA,North
2019-02-26T18:00:00Z,1551204000,2019,18,0,57.75,57.75,50.48,-154.436,1024.3,5.58,-999.0,yes,yes,no,300234063893650,BD2GI,AOML,WWD_COLUMBIA,North
2019-02-26T19:00:28Z,1551207629,2019,19,0,57.792,57.792,50.481,-154.455,1025.1,5.61,-999.0,yes,yes,no,300234063893650,BD2GI,AOML,WWD_COLUMBIA,North
2019-02-26T19:59:31Z,1551211171,2019,20,0,57.833,57.833,50.485,-154.475,1025.5,5.61,-999.0,yes,yes,no,300234063893650,BD2GI,AOML,WWD_COLUMBIA,North
2019-02-26T21:00:00Z,1551214800,2019,21,0,57.875,57.875,50.488,-154.494,1026.3,5.68,-999.0,yes,yes,no,300234063893650,BD2GI,AOML,WWD_COLUMBIA,North
2019-02-26T22:00:28Z,1551218429,2019,22,0,57.917,57.917,50.491,-154.511,1026.1,5.72,-999.0,yes,yes,no,300234063893650,BD2GI,AOML,WWD_COLUMBIA,North
2019-02-26T22:59:31Z,1551221971,2019,23,0,57.958,57.958,50.499,-154.527,1026.6,5.75,-999.0,yes,yes,no,300234063893650,BD2GI,AOML,WWD_COLUMBIA,North
2019-02-27T00:00:00Z,1551225600,2019,0,0,58.0,58.0,50.508,-154.541,1026.7,5.75,-999.0,yes,yes,no,300234063893650,BD2GI,AOML,WWD_COLUMBIA,North
2019-02-27T01:00:28Z,1551229229,2019,1,0,58.042,58.042,50.518,-154.551,1027.1,5.75,-999.0,yes,yes,no,300234063893650,BD2GI,AOML,WWD_COLUMBIA,North
2019-02-27T01:59:31Z,1551232771,2019,2,0,58.083,58.083,50.529,-154.557,1027.5,5.75,-999.0,yes,yes,no,300234063893650,BD2GI,AOML,WWD_COLUMBIA,North
2019-02-27T03:00:00Z,1551236400,2019,3,0,58.125,58.125,50.539,-154.554,1027.3,5.72,-999.0,yes,yes,no,300234063893650,BD2GI,AOML,WWD_COLUMBIA,North
2019-02-27T04:00:28Z,1551240029,2019,4,0,58.167,58.167,50.541,-154.551,1028.3,5.72,-999.0,yes,yes,no,300234063893650,BD2GI,AOML,WWD_COLUMBIA,North
2019-02-27T04:59:31Z,1551243571,2019,5,0,58.208,58.208,50.541,-154.55,1029.3,5.65,-999.0,yes,yes,no,300234063893650,BD2GI,AOML,WWD_COLUMBIA,North
2019-02-27T06:00:00Z,1551247200,2019,6,0,58.25,58.25,50.539,-154.551,1029.7,5.65,-999.0,yes,yes,no,300234063893650,BD2GI,AOML,WWD_COLUMBIA,North
2019-02-27T07:00:28Z,1551250829,2019,7,0,58.292,58.292,50.535,-154.557,1030.2,5.65,-999.0,yes,yes,no,300234063893650,BD2GI,AOML,WWD_COLUMBIA,North
2019-02-27T07:59:31Z,1551254371,2019,8,0,58.333,58.333,50.53,-154.567,1030.6,5.61,-999.0,yes,yes,no,300234063893650,BD2GI,AOML,WWD_COLUMBIA,North
2019-02-27T09:00:00Z,1551258000,2019,9,0,58.375,58.375,50.525,-154.581,1031.1,5.65,-999.0,yes,yes,no,300234063893650,BD2GI,AOML,WWD_COLUMBIA,North
2019-02-27T10:00:28Z,1551261629,2019,10,0,58.417,58.417,50.523,-154.598,1031.1,5.65,-999.0,yes,yes,no,300234063893650,BD2GI,AOML,WWD_COLUMBIA,North
2019-02-27T10:59:31Z,1551265171,2019,11,0,58.458,58.458,50.523,-154.617,1031.4,5.61,-999.0,yes,yes,no,300234063893650,BD2GI,AOML,WWD_COLUMBIA,North
2019-02-27T12:00:00Z,1551268800,2019,12,0,58.5,58.5,50.526,-154.639,1031.3,5.61,-999.0,yes,yes,no,300234063893650,BD2GI,AOML,WWD_COLUMBIA,North
2019-02-27T13:00:28Z,1551272429,2019,13,0,58.542,58.542,50.533,-154.658,1031.2,5.61,-999.0,yes,yes,no,300234063893650,BD2GI,AOML,WWD_COLUMBIA,North
2019-02-27T13:59:31Z,1551275971,2019,14,0,58.583,58.583,50.543,-154.673,1031.4,5.61,-999.0,yes,yes,no,300234063893650,BD2GI,AOML,WWD_COLUMBIA,North
2019-02-27T15:00:00Z,1551279600,2019,15,0,58.625,58.625,50.554,-154.683,1031.6,5.61,-999.0,yes,yes,no,300234063893650,BD2GI,AOML,WWD_COLUMBIA,North
2019-02-27T16:00:28Z,1551283229,2019,16,0,58.667,58.667,50.562,-154.686,1031.9,5.58,-999.0,yes,yes,no,300234063893650,BD2GI,AOML,WWD_COLUMBIA,North
2019-02-27T16:59:31Z,1551286771,2019,17,0,58.708,58.708,50.57,-154.689,1031.8,5.58,-999.0,yes,yes,no,300234063893650,BD2GI,AOML,WWD_COLUMBIA,North
2019-02-27T18:00:00Z,1551290400,2019,18,0,58.75,58.75,50.575,-154.69,1032.2,5.58,-999.0,yes,yes,no,300234063893650,BD2GI,AOML,WWD_COLUMBIA,North
2019-02-27T19:00:28Z,1551294029,2019,19,0,58.792,58.792,50.577,-154.689,1033.3,5.61,-999.0,yes,yes,no,300234063893650,BD2GI,AOML,WWD_COLUMBIA,North
2019-02-27T19:59:31Z,1551297571,2019,20,0,58.833,58.833,50.573,-154.689,1032.4,5.65,-999.0,yes,yes,no,300234063893650,BD2GI,AOML,WWD_COLUMBIA,North
2019-02-27T21:00:00Z,1551301200,2019,21,0,58.875,58.875,50.568,-154.696,1031.7,5.72,-999.0,yes,yes,no,300234063893650,BD2GI,AOML,WWD_COLUMBIA,North
2019-02-27T22:00:28Z,1551304829,2019,22,0,58.917,58.917,50.562,-154.711,1031.7,5.75,-999.0,yes,yes,no,300234063893650,BD2GI,AOML,WWD_COLUMBIA,North
2019-02-27T22:59:31Z,1551308371,2019,23,0,58.958,58.958,50.561,-154.727,1030.9,5.78,-999.0,yes,yes,no,300234063893650,BD2GI,AOML,WWD_COLUMBIA,North
2019-02-28T00:00:00Z,1551312000,2019,0,0,59.0,59.0,50.562,-154.743,1030.2,5.82,-999.0,yes,yes,no,300234063893650,BD2GI,AOML,WWD_COLUMBIA,North
2019-02-28T01:00:28Z,1551315629,2019,1,0,59.042,59.042,50.567,-154.759,1031.1,5.82,-999.0,yes,yes,no,300234063893650,BD2GI,AOML,WWD_COLUMBIA,North
2019-02-28T01:59:31Z,1551319171,2019,2,0,59.083,59.083,50.575,-154.774,1030.1,5.85,-999.0,yes,yes,no,300234063893650,BD2GI,AOML,WWD_COLUMBIA,North